Location: Ballingbuur
(53.0000°N, 5.7667°E)
Time: 04:53:06
(UTC+00:00)

H-2A R/B - Pass Details

Date: 29 November 2020
Orbit: 499 x 540 km, 97.3° (Epoch: 22 January)

Event Time Altitude Azimuth Distance (km) Brightness Sun altitude
Rises 06:07:22 0° 7° (N) 2,716 6.2 -11.0°
Reaches altitude 10° 06:09:36 10° 360° (N) 1,817 5.2 -10.7°
Maximum altitude 06:13:14 37° 292° (WNW) 847 3.3 -10.2°
Drops below altitude 10° 06:16:50 10° 224° (SW) 1,792 5.2 -9.7°
Sets 06:19:01 0° 217° (SW) 2,673 6.2 -9.4°
